Wind_Speed
28 29 29 29 29 30 31 32 32 33 34 35 36 37 38 38 39 39 39 40 41 41 42 42 43 44 44 45 45 45 46 46 46 46 46 46 46 46 46 46 45 45 45
28 28 29 29 30 31 31 32 33 34 35 36 37 39 40 41 41 42 43 44 45 46 47 47 48 49 49 50 50 51 51 51 51 51 51 51 51 51 50 50 50 49 49
29 29 29 30 31 32 32 33 34 36 37 38 39 40 41 42 43 44 45 46 47 48 50 51 52 53 54 55 55 55 56 56 56 56 56 55 55 55 54 54 53 53 52
29 30 30 31 32 33 33 34 35 36 37 38 39 40 41 42 43 44 45 47 48 49 50 52 53 55 56 57 58 59 59 59 59 59 59 59 59 58 58 58 57 56 56
31 32 32 33 34 34 34 35 36 37 37 38 39 40 41 42 43 44 45 46 48 49 50 51 53 55 56 58 59 60 60 61 61 61 62 62 61 61 61 60 60 59 59
33 33 33 34 34 34 34 35 36 36 37 38 39 39 40 41 42 44 45 46 47 48 50 51 52 54 55 57 58 59 60 61 62 63 63 63 63 64 63 63 63 62 61
32 32 32 32 33 33 34 35 36 36 37 39 40 40 40 41 43 44 45 46 47 49 50 52 53 54 56 57 59 60 61 62 63 63 64 65 65 65 65 65 65 64 64
31 31 32 32 33 34 35 36 38 38 39 41 42 43 42 42 44 46 47 48 49 51 52 54 56 57 58 59 61 62 64 65 65 66 66 66 67 67 67 67 67 66 66
31 32 33 34 35 36 37 38 40 41 42 43 45 47 48 47 47 47 50 52 53 54 55 57 58 60 62 63 64 66 67 68 69 70 70 70 70 70 70 70 69 69 68
33 34 35 36 37 38 39 41 42 43 45 46 48 50 52 53 54 53 52 54 57 59 61 62 63 64 66 68 69 70 72 73 74 74 75 75 74 74 74 73 73 72 72
35 36 37 38 39 40 42 44 45 47 49 50 52 54 56 58 60 62 61 60 61 63 65 68 69 70 71 72 73 74 76 77 78 79 79 80 79 79 79 78 77 77 76
37 38 39 41 42 44 45 47 49 51 53 55 57 58 61 62 64 67 69 68 69 69 70 72 74 76 77 78 79 79 80 81 82 84 84 85 85 84 84 83 82 81 80
40 41 42 44 46 48 49 51 53 55 57 59 61 63 65 67 70 72 74 75 76 75 76 77 79 81 82 84 85 85 85 85 86 87 88 89 89 89 89 88 87 86 85
43 44 46 47 49 51 53 55 56 58 61 63 65 67 69 71 74 76 79 81 82 81 81 81 82 84 86 88 89 90 90 90 90 90 91 92 93 93 93 92 92 91 89
46 47 49 50 52 54 56 58 60 62 65 67 69 71 73 75 78 79 81 84 86 87 84 83 84 86 88 89 90 91 91 91 91 90 91 91 93 93 94 93 93 92 91
48 50 51 53 55 57 59 61 63 66 68 70 72 75 77 78 80 82 84 86 87 89 89 85 85 85 86 86 86 87 87 87 86 86 85 85 86 87 89 89 90 90 90
51 52 54 56 58 60 62 65 67 70 72 74 76 78 79 81 82 84 85 85 86 86 87 83 81 81 82 81 80 79 77 76 75 74 73 73 73 74 76 78 81 82 84
53 55 56 59 61 63 66 68 70 72 75 76 78 80 81 82 83 83 83 83 82 82 83 81 76 74 73 73 71 69 67 66 64 63 63 63 64 65 66 67 70 72 74
55 57 59 62 64 66 69 71 73 75 77 78 80 81 82 83 82 81 80 79 78 78 77 75 70 67 65 63 62 60 58 58 57 57 57 57 58 58 59 60 61 63 65
58 60 62 65 67 69 72 74 76 77 78 79 80 81 82 82 80 79 77 75 73 71 69 67 64 59 57 55 55 53 52 52 52 52 53 53 53 52 53 53 55 56 58
61 63 65 67 70 72 75 76 78 78 79 80 80 81 80 79 77 74 72 69 67 65 62 59 56 52 50 49 49 49 48 47 47 48 48 48 48 48 48 48 49 50 52
64 66 68 70 72 74 76 78 79 80 80 81 80 79 76 74 71 69 67 64 62 59 56 53 50 48 46 46 45 45 45 44 43 43 44 43 43 43 44 44 45 46 46
66 68 71 73 75 76 78 79 80 81 81 81 79 75 72 69 66 64 61 58 55 53 51 49 47 46 44 44 43 43 43 42 40 39 39 38 38 39 40 41 41 42 43
69 71 73 75 76 77 79 80 81 81 80 78 74 71 68 64 62 59 56 53 50 48 47 47 46 44 43 42 42 41 40 39 37 36 37 36 35 36 38 38 39 39 40
71 73 75 77 77 78 80 80 81 80 77 73 69 66 63 59 56 54 52 49 46 45 45 44 43 42 41 41 40 40 39 38 36 34 34 34 34 35 35 36 37 38 38
73 75 76 78 79 79 80 80 80 78 73 69 64 60 57 55 52 50 48 46 44 42 42 41 40 40 39 39 38 38 38 38 36 33 33 34 34 35 34 34 35 36 37
Wind_Direction
284 283 283 281 280 279 278 277 276 274 273 271 270 269 269 268 268 267 267 267 267 267 267 267 267 267 267 268 268 269 269 270 270 271 271 272 272 273 274 274 275 275 276
286 285 284 282 281 279 279 278 277 276 275 274 273 272 271 271 270 269 269 268 268 268 268 268 268 268 268 268 268 268 269 269 270 270 271 271 271 272 272 273 273 274 274
287 286 285 284 282 281 281 280 278 277 276 276 275 275 274 274 273 272 272 271 270 270 270 270 270 270 269 269 269 269 269 270 270 270 270 270 271 271 271 272 272 272 273
288 287 287 285 284 284 283 282 281 280 279 278 277 277 277 276 276 275 275 274 273 273 272 272 272 272 272 271 271 271 270 270 270 270 270 270 270 270 270 270 271 271 272
288 287 287 287 286 286 285 284 283 282 281 280 280 279 279 278 278 277 277 276 276 275 274 273 273 273 273 273 272 272 271 271 271 270 270 270 269 269 269 269 270 270 270
288 288 287 287 287 287 286 285 285 284 284 283 282 281 280 280 279 278 278 277 277 277 276 275 275 274 274 274 274 273 272 272 271 271 271 270 270 269 269 269 269 269 269
289 289 289 288 288 287 287 286 286 286 286 285 284 283 283 283 282 281 281 280 280 279 278 278 277 276 276 275 275 275 274 273 272 272 271 270 270 269 268 268 268 268 268
290 290 290 290 289 289 289 288 288 288 288 287 286 285 283 282 283 283 282 282 281 280 280 279 279 278 277 276 276 275 275 274 273 272 271 270 269 269 268 267 267 267 266
290 291 291 291 290 290 290 290 290 290 290 290 289 289 287 285 282 282 283 283 282 281 280 279 279 279 278 277 276 275 274 274 273 272 271 270 269 268 267 267 266 265 265
290 291 291 291 291 291 291 291 291 291 291 291 291 291 291 290 288 285 283 284 284 283 282 280 279 278 277 277 276 275 274 273 272 271 271 270 269 268 267 266 265 264 264
291 291 292 292 292 292 292 292 292 292 293 292 292 292 291 291 291 289 287 285 284 284 284 283 282 280 278 277 275 274 273 273 272 271 270 269 268 267 266 265 264 264 263
292 292 293 293 293 293 293 293 293 294 294 294 293 293 293 292 292 291 290 289 287 286 285 284 283 282 280 278 277 275 273 272 271 270 269 268 267 266 266 265 264 263 262
292 292 293 293 294 294 294 294 294 295 295 295 295 295 295 294 294 293 292 291 289 288 287 286 285 284 282 280 278 276 274 272 270 269 268 267 266 265 264 264 263 262 261
293 293 293 294 294 295 295 295 296 296 296 296 296 296 296 296 295 294 294 293 291 289 288 287 286 284 283 281 280 278 276 274 272 270 268 267 266 264 263 262 261 260 259
293 294 294 294 295 296 296 296 297 297 297 297 297 297 297 296 296 295 294 293 292 291 289 288 286 285 283 282 281 280 278 276 275 273 270 268 266 264 263 261 260 259 258
294 294 295 296 296 297 297 297 298 298 298 298 298 298 298 297 296 296 295 294 293 292 290 289 288 287 285 284 283 282 280 278 277 275 273 270 268 265 263 261 259 258 257
295 295 296 297 297 298 298 299 299 299 300 300 300 299 299 298 298 297 296 295 294 293 292 291 290 288 286 285 284 283 281 279 278 276 274 272 270 268 265 263 261 259 257
296 297 298 299 299 299 300 301 301 301 301 301 301 301 300 300 299 298 297 296 295 294 293 293 291 289 287 286 285 283 282 280 279 277 275 274 272 270 268 265 263 260 258
298 299 300 300 301 302 302 302 302 303 303 303 303 302 302 301 300 299 298 297 296 295 294 294 293 290 288 287 285 283 282 281 280 279 278 276 274 272 270 267 264 261 258
300 301 302 302 303 303 303 303 304 304 304 304 304 304 303 302 301 300 299 298 296 295 295 294 293 291 289 287 285 284 282 281 281 280 280 278 275 272 270 268 265 262 259
301 302 303 304 304 305 305 305 305 305 305 305 305 304 303 302 301 300 299 298 296 295 294 294 293 291 290 288 286 285 284 282 282 282 280 278 276 273 271 269 266 263 260
303 304 304 305 305 306 306 306 306 306 306 306 306 305 303 302 301 300 298 297 297 296 295 293 292 291 290 289 287 286 285 284 283 282 281 279 276 274 271 270 268 264 261
304 304 305 306 307 307 307 307 307 307 308 307 306 304 303 301 300 299 297 296 296 295 294 293 293 292 291 289 288 287 286 286 285 283 281 279 276 274 272 270 268 265 263
305 305 306 307 308 308 308 308 308 308 308 307 305 304 302 301 299 298 297 296 295 294 293 292 292 292 292 291 289 289 288 287 287 285 283 280 277 274 272 270 268 265 262
306 307 308 308 309 309 309 309 309 309 308 306 305 304 302 301 299 298 297 296 295 293 292 292 291 292 291 290 289 289 288 288 288 285 284 282 279 276 273 271 269 266 263
307 308 309 309 310 310 310 309 309 308 307 306 304 303 302 301 299 298 297 296 295 294 292 291 291 292 291 290 289 289 288 288 288 287 284 282 280 278 275 273 270 267 263
Height
5826 5826 5825 5825 5824 5824 5823 5823 5822 5822 5821 5821 5821 5821 5821 5821 5821 5821 5821 5820 5820 5820 5819 5819 5819 5818 5818 5818 5817 5817 5817 5816 5816 5816 5816 5815 5815 5814 5814 5814 5813 5813 5812
5820 5819 5818 5818 5817 5816 5816 5815 5814 5814 5813 5813 5812 5812 5812 5812 5812 5811 5811 5811 5810 5809 5809 5808 5808 5807 5807 5806 5806 5806 5805 5805 5805 5805 5804 5804 5804 5803 5803 5803 5803 5802 5802
5813 5813 5812 5811 5810 5809 5808 5807 5806 5806 5805 5804 5804 5803 5803 5802 5802 5801 5801 5801 5800 5799 5798 5797 5796 5796 5795 5794 5794 5793 5793 5793 5792 5792 5792 5792 5792 5791 5791 5791 5791 5791 5791
5807 5806 5805 5803 5802 5801 5800 5799 5798 5797 5796 5796 5795 5794 5793 5793 5792 5791 5791 5790 5789 5788 5787 5786 5784 5783 5782 5782 5781 5780 5779 5779 5779 5778 5778 5778 5778 5778 5778 5778 5778 5778 5778
5800 5799 5797 5796 5794 5793 5792 5791 5789 5788 5787 5786 5785 5785 5784 5783 5782 5781 5780 5778 5777 5776 5775 5774 5772 5771 5769 5768 5767 5766 5765 5765 5764 5764 5764 5764 5763 5763 5764 5764 5764 5764 5765
5792 5791 5789 5788 5786 5785 5783 5782 5780 5779 5778 5776 5775 5775 5774 5772 5771 5770 5768 5767 5765 5764 5762 5761 5759 5758 5756 5754 5752 5751 5750 5749 5749 5748 5748 5748 5748 5748 5748 5748 5749 5749 5750
5785 5783 5781 5780 5778 5777 5775 5773 5772 5770 5768 5766 5765 5765 5764 5762 5760 5758 5757 5755 5754 5752 5749 5747 5746 5744 5742 5740 5738 5736 5734 5733 5732 5732 5732 5731 5731 5731 5732 5732 5733 5734 5734
5777 5775 5774 5772 5770 5768 5767 5764 5762 5761 5759 5756 5754 5753 5753 5754 5750 5748 5745 5743 5741 5739 5737 5734 5731 5729 5728 5726 5723 5720 5718 5716 5715 5714 5714 5714 5714 5714 5714 5715 5716 5717 5718
5770 5768 5766 5764 5762 5760 5758 5755 5753 5751 5749 5746 5743 5740 5738 5738 5738 5738 5734 5730 5727 5725 5723 5720 5717 5714 5711 5709 5707 5704 5701 5698 5696 5695 5694 5694 5695 5695 5695 5696 5697 5698 5700
5762 5760 5758 5755 5753 5751 5748 5746 5743 5740 5738 5735 5732 5728 5724 5721 5719 5720 5721 5717 5712 5709 5706 5703 5701 5698 5694 5691 5688 5684 5681 5678 5676 5675 5674 5674 5674 5675 5675 5676 5678 5679 5681
5754 5752 5749 5746 5744 5741 5738 5735 5732 5729 5725 5722 5719 5715 5711 5707 5702 5698 5699 5700 5697 5692 5688 5684 5680 5677 5673 5670 5667 5664 5660 5657 5654 5653 5652 5651 5651 5652 5653 5655 5656 5658 5660
5746 5743 5740 5737 5734 5731 5727 5724 5720 5717 5713 5708 5704 5700 5695 5691 5686 5680 5677 5676 5674 5672 5668 5664 5659 5654 5649 5645 5642 5640 5636 5633 5631 5628 5627 5626 5627 5628 5629 5631 5633 5635 5637
5736 5733 5730 5727 5723 5720 5716 5712 5708 5704 5699 5694 5689 5684 5678 5673 5667 5661 5655 5652 5649 5648 5644 5640 5634 5628 5622 5617 5614 5611 5609 5607 5604 5602 5600 5599 5599 5601 5602 5604 5607 5609 5612
5726 5723 5719 5716 5712 5707 5703 5699 5694 5689 5684 5678 5673 5667 5660 5654 5647 5639 5632 5626 5622 5622 5619 5616 5608 5600 5594 5588 5584 5580 5579 5576 5574 5573 5571 5570 5570 5571 5573 5575 5578 5582 5585
5715 5712 5708 5704 5699 5694 5689 5684 5679 5674 5668 5662 5655 5648 5642 5634 5626 5618 5610 5602 5594 5590 5593 5591 5582 5573 5564 5559 5554 5549 5547 5545 5542 5540 5539 5538 5539 5540 5542 5545 5548 5552 5556
5704 5700 5695 5691 5686 5680 5675 5669 5663 5657 5651 5644 5636 5629 5621 5613 5604 5596 5587 5578 5569 5559 5559 5563 5554 5545 5536 5530 5525 5520 5517 5514 5511 5509 5507 5507 5507 5508 5511 5514 5518 5522 5527
5691 5687 5682 5677 5671 5666 5659 5653 5646 5639 5632 5624 5616 5607 5599 5590 5581 5572 5562 5553 5544 5534 5527 5533 5527 5518 5509 5503 5498 5494 5490 5487 5485 5482 5480 5479 5479 5480 5482 5485 5489 5494 5499
5678 5673 5668 5662 5656 5649 5642 5635 5628 5620 5612 5604 5595 5585 5576 5566 5557 5547 5538 5529 5520 5510 5501 5501 5502 5493 5485 5478 5473 5470 5467 5464 5462 5460 5458 5457 5457 5457 5459 5461 5464 5468 5473
5665 5659 5653 5646 5639 5632 5625 5617 5609 5601 5592 5582 5573 5563 5553 5542 5533 5523 5514 5505 5496 5488 5479 5474 5475 5470 5463 5457 5452 5450 5447 5444 5442 5441 5439 5438 5438 5437 5438 5440 5442 5445 5449
5650 5644 5637 5630 5622 5614 5606 5597 5589 5580 5571 5561 5551 5540 5529 5519 5509 5500 5491 5483 5474 5466 5459 5453 5451 5449 5445 5439 5434 5432 5430 5428 5426 5424 5422 5421 5420 5420 5420 5421 5424 5426 5429
5635 5628 5621 5613 5604 5596 5586 5577 5569 5560 5550 5541 5530 5518 5507 5497 5487 5477 5469 5462 5454 5447 5441 5436 5433 5430 5428 5423 5419 5416 5414 5413 5412 5409 5406 5405 5404 5404 5404 5404 5406 5408 5411
5619 5611 5604 5595 5587 5577 5567 5557 5547 5538 5529 5519 5508 5497 5486 5476 5467 5458 5450 5442 5435 5429 5424 5420 5417 5415 5412 5409 5405 5402 5399 5398 5397 5396 5392 5391 5389 5389 5389 5390 5390 5392 5395
5603 5595 5586 5577 5568 5558 5547 5537 5526 5516 5507 5496 5485 5476 5466 5457 5447 5440 5433 5426 5420 5414 5409 5405 5403 5400 5397 5394 5391 5389 5386 5384 5383 5381 5378 5378 5377 5376 5376 5376 5377 5378 5381
5586 5577 5568 5559 5549 5538 5527 5516 5506 5496 5486 5475 5464 5455 5446 5439 5429 5422 5416 5412 5407 5402 5396 5392 5389 5387 5384 5381 5377 5375 5372 5371 5370 5368 5366 5365 5365 5364 5363 5364 5364 5366 5368
5568 5559 5550 5539 5529 5519 5507 5495 5484 5475 5465 5456 5446 5436 5427 5420 5413 5405 5400 5396 5393 5389 5384 5379 5376 5374 5371 5368 5365 5362 5360 5358 5358 5357 5355 5353 5353 5352 5352 5353 5353 5353 5355
5550 5541 5531 5520 5509 5499 5487 5475 5463 5453 5445 5437 5429 5420 5411 5403 5397 5391 5386 5382 5379 5375 5371 5368 5365 5362 5359 5356 5353 5350 5348 5346 5345 5346 5345 5342 5342 5340 5341 5342 5341 5342 5343